Dewpoint
49 55 57 58 58 58 57 57 55 54 54 50 46 43 42 42 41 40 40 40 41 40 39 38 35 34 35 36 36 36 38 36
51 53 56 57 58 56 56 55 55 54 51 45 42 42 41 40 39 39 40 40 40 39 36 36 35 33 36 37 34 33 30 35
50 51 54 56 56 55 56 56 53 50 45 44 43 41 40 39 39 39 39 40 39 37 36 35 36 32 35 36 35 29 31 36
49 51 53 55 55 55 53 51 49 47 45 44 42 41 40 38 38 37 38 39 38 38 37 36 36 35 32 35 35 32 27 30
47 47 46 46 46 47 48 46 45 45 45 44 43 42 41 40 39 38 37 39 38 37 37 38 38 37 34 33 34 33 33 27
43 41 41 42 43 44 44 44 44 44 44 44 43 42 41 39 39 39 39 38 39 38 37 38 38 36 35 36 37 37 35 32
41 41 42 42 43 44 45 44 44 44 44 44 43 42 40 39 39 38 38 37 37 38 37 38 38 38 38 38 38 38 36 35
41 41 42 42 42 44 44 44 43 43 43 43 42 41 41 39 38 37 37 36 35 36 38 37 37 39 39 39 38 37 37 35
42 42 43 43 42 42 43 43 42 42 42 41 41 41 40 39 38 38 37 37 37 38 38 37 36 37 38 39 37 36 37 37
42 43 43 43 42 42 43 41 41 41 40 40 40 39 39 38 37 37 36 37 35 36 37 37 36 36 36 36 35 34 34 34
42 42 41 40 39 39 40 41 40 40 38 38 36 35 35 34 34 34 33 33 34 34 34 35 36 35 35 34 33 31 30 31
40 39 39 36 33 34 37 37 35 34 35 35 34 32 32 32 31 32 32 33 32 33 34 35 35 34 35 34 33 29 27 27
37 36 34 32 31 34 33 32 30 32 33 30 30 31 31 31 30 30 30 30 32 33 35 35 35 36 36 31 27 28 27 25
36 34 33 31 31 32 29 29 28 26 26 26 29 31 31 30 29 30 31 32 34 36 36 36 33 30 29 29 28 26 23 23
34 34 32 30 29 28 27 27 26 25 25 27 30 32 31 30 30 31 33 34 34 34 35 35 34 31 28 26 23 24 25 25
34 33 32 32 31 27 25 24 25 25 24 28 32 32 32 31 31 32 34 33 32 33 32 32 28 25 24 27 27 25 23 20
34 32 32 33 29 24 23 22 22 25 24 28 32 31 31 30 30 32 33 32 32 33 32 27 25 25 28 25 25 22 19 16
32 32 33 30 23 22 20 20 23 23 26 31 29 29 29 29 29 31 30 32 31 32 29 25 24 25 23 21 25 20 17 15
33 32 26 23 22 20 20 20 21 24 29 28 27 28 28 28 28 27 28 32 32 31 26 24 22 19 21 20 20 17 17 15
Wind_Speed
5 5 8 14 15 17 18 15 15 16 12 12 9 6 6 7 8 9 10 10 10 9 8 8 8 8 8 8 8 8 5 9
5 10 12 17 17 17 16 20 16 12 11 12 9 7 7 7 8 9 9 9 8 8 7 6 7 7 7 7 7 10 9 12
10 12 13 15 18 20 13 12 16 15 14 7 4 7 4 6 7 6 6 6 6 6 5 4 4 4 5 5 6 6 6 7
15 15 12 12 13 13 13 14 16 13 7 8 10 8 6 5 5 4 3 3 3 3 2 1 1 2 2 1 1 4 7 5
15 15 14 14 12 12 13 12 12 10 9 6 6 2 3 3 3 2 0 1 1 2 3 3 2 2 3 3 3 4 4 7
14 16 16 14 14 14 13 13 11 9 5 4 4 5 6 5 3 1 3 4 5 6 6 6 7 6 6 4 4 5 4 6
12 12 14 12 7 9 12 11 8 7 6 6 7 8 6 3 1 4 5 5 7 9 9 10 10 8 6 5 5 6 7 7
13 11 8 9 9 7 8 8 7 6 6 7 7 6 4 2 4 6 8 7 7 10 9 11 9 6 6 4 5 9 10 9
12 10 9 8 6 5 6 6 6 5 5 5 3 3 4 5 6 8 9 10 11 12 10 8 8 8 8 7 7 10 11 9
13 10 8 7 7 4 4 6 5 5 5 3 5 4 4 6 8 7 7 8 9 10 11 11 12 10 8 7 8 11 11 12
11 9 9 8 5 3 4 5 7 5 4 5 4 3 3 3 3 6 8 10 11 13 15 15 13 9 5 3 6 7 12 11
11 11 9 8 5 4 6 6 5 4 4 3 3 3 2 3 5 7 9 12 15 16 17 15 11 4 5 9 8 8 7 9
12 11 10 8 7 8 9 6 5 5 5 6 3 3 3 5 8 10 12 14 15 15 14 9 4 5 8 7 3 3 7 8
12 10 9 7 7 8 6 6 7 5 3 2 2 3 4 5 7 10 12 14 14 12 8 6 6 3 3 4 4 4 4 7
12 9 8 8 7 6 5 5 4 3 1 1 1 2 2 4 8 10 12 12 11 10 7 6 4 5 5 3 3 4 7 10
11 11 10 9 8 6 7 5 3 2 2 3 3 2 4 6 9 10 11 10 9 6 6 4 4 3 4 4 5 7 10 12
13 12 10 8 7 9 7 4 1 1 4 4 3 3 6 8 10 10 9 7 5 3 5 2 2 4 6 7 8 9 11 12
13 13 10 8 10 9 5 1 1 3 3 3 3 5 7 9 10 10 10 7 5 5 5 2 1 3 6 8 7 8 11 13
14 12 10 11 10 6 2 1 2 2 3 3 4 6 7 9 10 13 11 9 8 6 4 3 1 2 5 7 8 9 11 12
Wind_Direction
22 62 94 122 130 127 125 118 119 107 120 130 127 134 119 118 107 103 98 88 89 85 73 62 46 35 25 12 3 6 2 347
71 97 115 119 117 129 136 128 114 140 148 147 144 155 132 100 93 88 90 93 85 81 77 62 45 37 28 21 5 2 356 357
111 112 122 139 146 145 155 147 143 163 166 167 131 139 113 109 99 94 97 102 99 89 82 64 47 33 38 33 20 355 343 5
122 123 126 128 139 156 159 146 156 172 170 132 116 118 125 134 141 129 95 86 77 78 94 78 40 21 5 348 340 360 344 349
133 134 137 136 137 140 140 145 161 162 163 166 130 152 169 140 137 119 83 337 315 260 257 263 258 247 257 280 292 332 329 325
147 149 149 148 151 149 145 146 148 149 149 150 138 114 107 124 136 202 270 270 264 269 269 274 267 260 262 263 265 260 271 291
158 163 160 159 152 136 131 134 116 116 123 123 118 109 126 132 217 276 282 285 279 267 263 262 263 262 251 258 267 273 282 281
174 169 164 152 139 141 133 130 112 101 110 106 116 143 168 230 274 301 303 295 288 306 298 285 280 273 258 255 268 274 272 272
183 179 171 156 135 137 120 127 125 122 116 125 141 45 1 341 328 318 308 307 305 307 304 283 259 240 228 237 270 282 274 277
183 178 174 158 146 147 164 126 126 152 159 110 60 28 345 317 315 313 301 300 304 309 302 285 260 245 233 271 275 284 302 295
179 166 153 132 129 125 111 142 157 153 102 59 43 358 324 314 324 343 345 336 327 318 309 299 284 267 268 267 281 290 283 291
166 148 131 130 128 128 136 126 142 99 92 112 107 101 53 32 12 358 348 332 326 318 313 307 296 278 301 277 283 282 297 301
144 140 144 154 149 143 131 158 105 76 102 115 103 79 36 23 10 351 335 324 319 316 311 300 267 299 287 298 279 312 309 290
149 151 160 152 133 145 137 91 106 120 125 110 97 39 27 10 345 330 328 329 330 334 332 323 329 340 319 282 327 348 309 303
163 161 157 151 142 137 124 142 139 161 221 246 356 21 341 329 327 330 334 338 336 338 337 333 333 314 316 1 19 339 314 308
175 174 174 170 160 152 154 159 185 240 296 257 234 265 305 315 333 336 332 333 332 340 351 349 347 52 53 16 350 329 322 319
183 180 176 177 166 155 165 182 232 276 270 240 227 293 301 332 334 327 322 324 346 356 343 343 86 69 49 26 350 328 327 324
181 178 181 167 158 168 170 171 293 278 257 213 264 291 322 328 317 310 308 301 303 303 304 189 112 64 23 5 2 332 326 326
180 176 164 159 161 152 142 272 274 263 215 257 282 311 311 314 315 314 308 287 271 282 228 199 181 41 13 2 350 332 328 327